Regional Weather Roundup
Issued by NWS

Home | Current Version | Previous Version | Graphics & Text | Print | Product List | Glossary On
Versions: 1 2 3 4 5 6 7 8 9 10 11 12 13 14 15 16 17 18 19 20 21 22 23 24 25 26 27 28 29 30 31 32 33 34 35 36 37 38 39 40 41 42 43 44 45 46 47 48 49 50
000
ASUS43 KDMX 010007
RWRIA

WEATHER ROUNDUP FOR IOWA
NATIONAL WEATHER SERVICE DES MOINES IA
700 PM CDT TUE SEP 30 2014

NOTE: "FAIR" INDICATES FEW OR NO CLOUDS BELOW 12,000 FEET WITH NO
SIGNIFICANT WEATHER AND/OR OBSTRUCTIONS TO VISIBILITY.

* - THESE STATIONS ARE NOT NWS STATIONS...THUS NOT UNDER NWS
QUALITY CONTROL.  THEY ALSO DO NOT REPORT WEATHER SUCH
AS PRECIPITATION OR FOG.

IAZ001>003-012>014-020>022-031>034-043>046-010100-
   NORTHWEST IOWA

CITY           SKY/WX    TMP DP  RH WIND       PRES   REMARKS
CARROLL *      LGT RAIN  61  61 100 NE7G14    29.84F
CHEROKEE *     CLOUDY    62  62  99 E7        29.81F
DENISON *      LGT RAIN  63  63 100 SE13      29.79F
LE MARS *      CLOUDY    66  63  88 SE14      29.78R
ORANGE CITY *  CLOUDY    64  61  88 SE13G20   29.78S
SHELDON *      MOCLDY    63  61  94 SE16G24   29.79R
SIOUX CITY     CLOUDY    67  63  87 SE13      29.75F
6HR MIN TEMP:  64; 6HR MAX TEMP:  69; 6HR PCP:  0.24;

SPENCER        CLOUDY    61  59  93 SE14      29.83S
6HR MIN TEMP:  60; 6HR MAX TEMP:  64; 6HR PCP:  0.32;

STORM LAKE *   CLOUDY    61  61 100 E13       29.82F FOG
$$

IAZ055>058-069>071-079>083-090>094-010100-
   SOUTHWEST IOWA

CITY           SKY/WX    TMP DP  RH WIND       PRES   REMARKS
ATLANTIC *     RAIN      64  64 100 N6        29.82R
AUDUBON *      LGT RAIN  63  57  82 N3        29.85R
CLARINDA *     MOCLDY    66  66 100 NE5       29.81R
COUNCIL BLFS * LGT RAIN  64  64 100 E5        29.78F
CRESTON *      MOCLDY    70  64  83 E12       29.81F
HARLAN  *      RAIN      64  64 100 E5        29.86S
LAMONI         PTCLDY    71  63  75 E8        29.82S
6HR MIN TEMP:  71; 6HR MAX TEMP:  80;

RED OAK *      LGT RAIN  66  64  94 N7        29.81R
SHENANDOAH *   LGT RAIN  66  64  94 NE6       29.79S
$$

IAZ047>049-059>061-072>074-084-010100-
   CENTRAL IOWA

CITY           SKY/WX    TMP DP  RH WIND       PRES   REMARKS
AMES           CLOUDY    65  56  72 E10       29.85S
6HR MIN TEMP:  61; 6HR MAX TEMP:  69;

ANKENY *       MOCLDY    68  57  68 E10G17    29.84F
CHARITON *     MOCLDY    66  61  82 E8G15     29.85R
DES MOINES     CLOUDY    69  58  67 SE12      29.84R
6HR MIN TEMP:  63; 6HR MAX TEMP:  70;

GRINNELL*      PTCLDY    63  55  73 E7        29.89S
KNOXVILLE *    MOCLDY    66  59  77 E7        29.85R
MARSHALLTOWN   MOCLDY    61  54  77 E14       29.88F
6HR MIN TEMP:  58; 6HR MAX TEMP:  67;

PELLA *        MOCLDY    66  57  72 E8        29.89R
PERRY *        RAIN      64  60  88 NW9G17    29.85R
$$

IAZ004>006-015-016-023>025-035-036-010100-
   NORTH CENTRAL IOWA

CITY           SKY/WX    TMP DP  RH WIND       PRES   REMARKS
ALGONA *       HVY RAIN  61  59  94 VRB3      29.90F
CLARION *      PTCLDY    63  54  72 SE8G14    29.88R
ESTHERVILLE    LGT RAIN  59  57  93 SE13G28   29.83S
6HR MIN TEMP:  56; 6HR MAX TEMP:  64; 6HR PCP:  0.18;

FORT DODGE *   CLOUDY    61  57  88 CALM      29.92R
MASON CITY     CLOUDY    61  52  72 SE10      29.91R
6HR MIN TEMP:  56; 6HR MAX TEMP:  65;

FOREST CITY *  PTCLDY    61  54  77 SE5       29.90R
IOWA FALLS *     N/A     63  54  72 E9        29.89F
$$

IAZ007>011-017>019-026>030-037>042-050>054-066-010100-
   NORTHEAST IOWA

CITY           SKY/WX    TMP DP  RH WIND       PRES   REMARKS
CEDAR RAPIDS   CLEAR     61  54  77 E7        29.92R
CHARLES CITY * CLEAR     57  48  72 E12       29.93S
CLINTON *      PTCLDY    55  46  71 NE9       29.99S
DECORAH *      PTCLDY    52  46  82 E7        29.96R
MONTICELLO *   CLEAR     57  48  72 E7        29.95R
OELWEIN *      CLEAR     57  46  67 E8        29.95S
WATERLOO       PTCLDY    61  50  67 SE10      29.91S
6HR MIN TEMP:  55; 6HR MAX TEMP:  66;

$$

IAZ064-065-067-068-078-010100-
   EAST CENTRAL IOWA

CITY           SKY/WX    TMP DP  RH WIND       PRES   REMARKS
IOWA CITY      CLEAR     62  53  72 E8        29.94R
6HR MIN TEMP:  57; 6HR MAX TEMP:  69;

MT. PLEASANT * CLEAR     64  54  71 E6        29.90F
MUSCATINE *    CLEAR     63  52  67 E8        29.92F
$$

IAZ062-063-075>077-085>089-095>099-010100-
   SOUTHEAST IOWA

CITY           SKY/WX    TMP DP  RH WIND       PRES   REMARKS
BURLINGTON     CLEAR     67  56  67 E8        29.91S
6HR MIN TEMP:  61; 6HR MAX TEMP:  71;

FAIRFIELD *    CLEAR     64  55  72 E10       29.89S
FORT MADISON * CLEAR     68  57  68 E6        29.91S
KEOKUK *       CLEAR     66  59  77 E10       29.88F
OSKALOOSA *      N/A     64  57  76 E7        29.89R
CENTERVILLE *  CLEAR     66  63  88 E8        29.87S
OTTUMWA        PTCLDY    64  56  75 E10       29.88R
6HR MIN TEMP:  63; 6HR MAX TEMP:  70;

WASHINGTON *   CLEAR     64  55  72 E7        29.91S
$$

ABBREVIATIONS USED IN REMARKS
   TC - TEMPERATURES IN CELSIUS
  WCI - WIND CHILL INDEX
   HX - HEAT INDEX
  VSB - VISIBILITY
$$




USA.gov is the U.S. government's official web portal to all federal, state and local government web resources and services.